When you browse on this site, cookies collect data to enhance your experience and personalize the content and advertising you see.
Visit our Privacy Policy to learn more. By continuing to use the site, you agree to this use of cookies and data.
  • In Hungary
  • List of Countries
  • For 7 days
  • Water Temperature
  • Weather Map
  • News
  • Weather Widgets
  • user-avatar
    Login

    Hourly Weather Ahmadpur

    Today, 12 December, Thursday

    Time Temperature Precipitation Wind Pressure Humidity
    00:00 +21°C° 0 mm 3 mps 713 mmHg 64%
    01:00 +21°C° 0 mm 3 mps 713 mmHg 66%
    02:00 +20°C° 0 mm 3 mps 712 mmHg 69%
    03:00 +20°C° 0 mm 3 mps 712 mmHg 71%
    04:00 +20°C° 0 mm 3 mps 712 mmHg 73%
    05:00 +20°C° 0 mm 4 mps 713 mmHg 77%
    06:00 +21°C° 0 mm 4 mps 713 mmHg 75%
    07:00 +22°C° 0 mm 4 mps 714 mmHg 72%
    08:00 +23°C° 0 mm 5 mps 715 mmHg 69%
    09:00 +26°C° 0 mm 4 mps 715 mmHg 62%
    10:00 +27°C° 0 mm 4 mps 715 mmHg 55%
    11:00 +29°C° 0 mm 4 mps 715 mmHg 48%
    12:00 +29°C° 0 mm 3 mps 714 mmHg 47%
    13:00 +29°C° 0 mm 2 mps 713 mmHg 46%
    14:00 +29°C° 0 mm 2 mps 712 mmHg 44%
    15:00 +29°C° 0 mm 2 mps 712 mmHg 47%
    16:00 +28°C° 0 mm 1 mps 712 mmHg 50%
    17:00 +27°C° 0 mm 1 mps 712 mmHg 53%
    18:00 +27°C° 0 mm 1 mps 713 mmHg 53%
    19:00 +27°C° 0 mm 2 mps 713 mmHg 52%
    20:00 +26°C° 0 mm 2 mps 714 mmHg 52%
    21:00 +26°C° 0 mm 3 mps 713 mmHg 54%
    22:00 +25°C° 0 mm 4 mps 713 mmHg 56%
    23:00 +23°C° 0 mm 4 mps 713 mmHg 58%

    Tomorrow, 13 December, Friday

    Time Temperature Precipitation Wind Pressure Humidity
    00:00 +23°C° 0 mm 5 mps 713 mmHg 62%
    01:00 +22°C° 0 mm 5 mps 713 mmHg 66%
    02:00 +22°C° 0 mm 6 mps 713 mmHg 70%
    03:00 +22°C° 0 mm 5 mps 713 mmHg 73%
    04:00 +21°C° 0 mm 4 mps 713 mmHg 77%
    05:00 +21°C° 0 mm 3 mps 713 mmHg 80%
    06:00 +21°C° 0 mm 3 mps 713 mmHg 78%
    07:00 +22°C° 0 mm 3 mps 714 mmHg 77%
    08:00 +22°C° 0 mm 3 mps 715 mmHg 75%
    09:00 +25°C° 0 mm 3 mps 715 mmHg 68%
    10:00 +27°C° 0 mm 4 mps 715 mmHg 60%
    11:00 +29°C° 0 mm 4 mps 715 mmHg 52%
    12:00 +29°C° 0 mm 3 mps 715 mmHg 49%
    13:00 +30°C° 0 mm 3 mps 714 mmHg 46%
    14:00 +30°C° 0 mm 2 mps 713 mmHg 43%
    15:00 +30°C° 0 mm 2 mps 713 mmHg 45%
    16:00 +29°C° 0 mm 2 mps 713 mmHg 47%
    17:00 +28°C° 0 mm 2 mps 713 mmHg 50%
    18:00 +28°C° 0 mm 2 mps 714 mmHg 52%
    19:00 +27°C° 0 mm 3 mps 714 mmHg 54%
    20:00 +26°C° 0 mm 3 mps 715 mmHg 56%
    21:00 +26°C° 0 mm 3 mps 715 mmHg 57%
    22:00 +25°C° 0 mm 2 mps 715 mmHg 57%
    23:00 +25°C° 0 mm 2 mps 715 mmHg 58%

    Day after tomorrow, 14 December, Saturday

    Time Temperature Precipitation Wind Pressure Humidity
    00:00 +25°C° 0 mm 3 mps 714 mmHg 60%
    01:00 +24°C° 0 mm 3 mps 714 mmHg 63%
    02:00 +22°C° 0 mm 3 mps 714 mmHg 65%
    03:00 +22°C° 0 mm 3 mps 714 mmHg 68%
    04:00 +22°C° 0 mm 3 mps 714 mmHg 70%
    05:00 +23°C° 0 mm 2 mps 714 mmHg 73%
    06:00 +22°C° 0 mm 3 mps 715 mmHg 72%
    07:00 +24°C° 0 mm 3 mps 716 mmHg 71%
    08:00 +24°C° 0 mm 3 mps 717 mmHg 69%
    09:00 +26°C° 0 mm 3 mps 717 mmHg 62%
    10:00 +28°C° 0 mm 3 mps 717 mmHg 55%
    11:00 +29°C° 0 mm 3 mps 717 mmHg 47%
    12:00 +29°C° 0 mm 2 mps 716 mmHg 45%
    13:00 +30°C° 0 mm 2 mps 715 mmHg 43%
    14:00 +30°C° 0 mm 2 mps 714 mmHg 40%
    15:00 +29°C° 0 mm 1 mps 714 mmHg 42%
    16:00 +29°C° 0 mm 1 mps 714 mmHg 44%
    17:00 +28°C° 0 mm 1 mps 713 mmHg 46%
    18:00 +28°C° 0 mm 1 mps 714 mmHg 47%
    19:00 +27°C° 0 mm 2 mps 714 mmHg 47%
    20:00 +27°C° 0 mm 2 mps 715 mmHg 48%
    21:00 +26°C° 0 mm 3 mps 715 mmHg 51%
    22:00 +26°C° 0 mm 3 mps 714 mmHg 55%
    23:00 +25°C° 0 mm 4 mps 714 mmHg 58%

    15 December, Sunday

    Time Temperature Precipitation Wind Pressure Humidity
    00:00 +23°C° 0 mm 4 mps 714 mmHg 61%
    01:00 +24°C° 0 mm 3 mps 714 mmHg 63%
    02:00 +24°C° 0 mm 3 mps 713 mmHg 65%
    03:00 +22°C° 0 mm 3 mps 714 mmHg 67%
    04:00 +22°C° 0 mm 3 mps 714 mmHg 69%
    05:00 +21°C° 0 mm 3 mps 714 mmHg 71%
    06:00 +22°C° 0 mm 4 mps 714 mmHg 69%
    07:00 +23°C° 0 mm 5 mps 715 mmHg 66%
    08:00 +25°C° 0 mm 5 mps 715 mmHg 64%
    09:00 +26°C° 0 mm 5 mps 715 mmHg 56%
    10:00 +28°C° 0 mm 4 mps 715 mmHg 49%
    11:00 +30°C° 0 mm 4 mps 715 mmHg 41%
    12:00 +30°C° 0 mm 3 mps 715 mmHg 39%
    13:00 +31°C° 0 mm 3 mps 714 mmHg 37%
    14:00 +31°C° 0 mm 2 mps 713 mmHg 34%
    15:00 +30°C° 0 mm 2 mps 713 mmHg 37%
    16:00 +29°C° 0 mm 2 mps 713 mmHg 39%
    17:00 +29°C° 0 mm 1 mps 713 mmHg 42%
    18:00 +28°C° 0 mm 1 mps 713 mmHg 43%
    19:00 +28°C° 0 mm 2 mps 714 mmHg 44%
    20:00 +27°C° 0 mm 2 mps 714 mmHg 45%
    21:00 +27°C° 0 mm 2 mps 714 mmHg 48%
    22:00 +26°C° 0 mm 2 mps 714 mmHg 51%
    23:00 +25°C° 0 mm 2 mps 714 mmHg 53%

    16 December, Monday

    Time Temperature Precipitation Wind Pressure Humidity
    00:00 +24°C° 0 mm 3 mps 714 mmHg 59%
    01:00 +24°C° 0 mm 3 mps 713 mmHg 65%
    02:00 +22°C° 0 mm 4 mps 713 mmHg 70%
    03:00 +21°C° 0 mm 4 mps 713 mmHg 73%
    04:00 +21°C° 0 mm 4 mps 713 mmHg 75%
    05:00 +21°C° 0 mm 4 mps 713 mmHg 77%
    06:00 +21°C° 0 mm 4 mps 714 mmHg 75%
    07:00 +22°C° 0 mm 4 mps 714 mmHg 72%
    08:00 +23°C° 0 mm 4 mps 715 mmHg 70%
    09:00 +26°C° 0 mm 4 mps 715 mmHg 61%
    10:00 +28°C° 0 mm 3 mps 715 mmHg 52%
    11:00 +29°C° 0 mm 3 mps 715 mmHg 43%
    12:00 +30°C° 0 mm 2 mps 715 mmHg 40%
    13:00 +30°C° 0 mm 2 mps 714 mmHg 37%
    14:00 +31°C° 0 mm 2 mps 713 mmHg 34%
    15:00 +30°C° 0 mm 2 mps 713 mmHg 38%
    16:00 +29°C° 0 mm 3 mps 713 mmHg 41%
    17:00 +28°C° 0 mm 3 mps 713 mmHg 44%
    18:00 +28°C° 0 mm 3 mps 713 mmHg 45%
    19:00 +27°C° 0 mm 3 mps 714 mmHg 45%
    20:00 +27°C° 0 mm 3 mps 714 mmHg 45%
    21:00 +26°C° 0 mm 3 mps 714 mmHg 48%
    22:00 +26°C° 0 mm 4 mps 714 mmHg 52%
    23:00 +25°C° 0 mm 4 mps 714 mmHg 55%

    17 December, Tuesday

    Time Temperature Precipitation Wind Pressure Humidity
    00:00 +23°C° 0 mm 4 mps 714 mmHg 58%
    01:00 +23°C° 0 mm 4 mps 713 mmHg 62%
    02:00 +22°C° 0 mm 4 mps 713 mmHg 66%
    03:00 +21°C° 0 mm 4 mps 713 mmHg 67%
    04:00 +21°C° 0 mm 3 mps 713 mmHg 69%
    05:00 +21°C° 0 mm 3 mps 714 mmHg 71%
    06:00 +21°C° 0 mm 3 mps 714 mmHg 68%
    07:00 +22°C° 0 mm 3 mps 715 mmHg 65%
    08:00 +24°C° 0 mm 3 mps 716 mmHg 62%
    09:00 +26°C° 0 mm 3 mps 716 mmHg 55%
    10:00 +27°C° 0 mm 2 mps 716 mmHg 48%
    11:00 +29°C° 0 mm 2 mps 716 mmHg 41%
    12:00 +29°C° 0 mm 2 mps 715 mmHg 40%
    13:00 +30°C° 0 mm 2 mps 715 mmHg 38%
    14:00 +30°C° 0 mm 2 mps 714 mmHg 37%
    15:00 +29°C° 0 mm 2 mps 714 mmHg 39%
    16:00 +29°C° 0 mm 2 mps 714 mmHg 42%
    17:00 +28°C° 0 mm 2 mps 713 mmHg 45%
    18:00 +27°C° 0 mm 2 mps 714 mmHg 46%
    19:00 +27°C° 0 mm 2 mps 714 mmHg 47%
    20:00 +26°C° 0 mm 2 mps 715 mmHg 48%
    21:00 +25°C° 0 mm 3 mps 715 mmHg 51%
    22:00 +24°C° 0 mm 3 mps 715 mmHg 54%
    23:00 +24°C° 0 mm 3 mps 714 mmHg 57%
    Show more